FW5346 Weather Reports


time (UTC)temp
F
wind
direction
speed
knots
gust
knots
rain 1hr
in
rain 24hr
in
rain mn
in
humidity
%
barometer
mb
20260504081550 38 252 8.7 13.0 0.05 0.68 0.14 93 978.1
20260504050013 41 334 6.1 10.4 0.00 0.54 0.00 84 976.0
20260504044509 41 353 2.6 7.8 0.00 0.54 0.00 83 976.3
20260504043007 42 61 0.0 5.2 0.00 0.54 0.00 83 976.8
20260504041504 42 87 6.1 11.3 0.00 0.54 0.00 82 977.3
20260504040001 43 44 4.3 9.6 0.00 0.54 0.00 82 977.7
20260504034559 43 177 2.6 13.0 0.00 0.54 0.00 82 978.0
20260504033058 43 343 6.1 14.8 0.00 0.54 0.00 82 978.3
20260504031555 43 246 7.0 13.9 0.00 0.54 0.00 82 978.4
20260504030053 43 334 10.4 20.9 0.00 0.54 0.00 81 978.0
20260504024608 43 116 19.1 38.2 0.00 0.54 0.54 82 978.3
20260504023052 43 74 11.3 26.9 0.00 0.54 0.54 81 979.1
20260504021548 43 87 13.9 50.4 0.00 0.54 0.54 80 980.1
20260504020048 44 70 29.5 55.6 0.00 0.54 0.54 79 979.5
20260504014547 43 94 33.0 53.0 0.01 0.54 0.54 80 979.5
20260504013046 43 109 42.6 62.6 0.01 0.54 0.54 80 979.3
20260504011545 44 116 46.1 63.4 0.02 0.54 0.54 80 979.6
20260504010042 44 127 40.0 64.3 0.03 0.54 0.54 81 981.0
20260504004546 44 98 49.5 71.3 0.03 0.53 0.53 81 980.1
20260504003046 43 112 47.8 68.6 0.04 0.52 0.52 81 980.6
20260504001543 43 97 46.1 68.6 0.04 0.52 0.52 82 982.1
20260504000054 43 136 46.1 61.7 0.02 0.50 0.50 82 982.9
20260503234531 43 86 32.2 62.6 0.02 0.50 0.50 82 985.6
20260503233027 43 77 18.2 32.2 0.04 0.48 0.48 84 988.0
20260503231525 42 74 16.5 38.2 0.11 0.48 0.48 85 989.4
20260503230026 42 61 19.1 33.9 0.14 0.48 0.48 87 991.3
20260503224519 40 36 17.4 27.8 0.17 0.48 0.48 89 992.5
20260503223016 39 22 12.2 18.2 0.15 0.44 0.44 88 993.4
20260503221512 40 1 14.8 17.4 0.10 0.36 0.36 87 994.2
20260503220009 40 360 9.6 14.8 0.11 0.34 0.34 86 995.1
20260503214509 40 359 7.8 14.8 0.09 0.31 0.31 86 995.0
20260503213010 41 13 7.8 26.1 0.09 0.28 0.28 85 995.3
20260503211505 42 55 12.2 25.2 0.10 0.25 0.25 87 996.0
20260503210005 42 360 13.9 20.9 0.13 0.23 0.23 86 996.3
20260503204502 42 19 14.8 19.1 0.17 0.23 0.23 85 997.0
20260503203113 42 10 13.9 18.2 0.16 0.20 0.20 84 998.1
20260503201556 42 355 13.9 17.4 0.15 0.15 0.15 80 998.8
20260503200052 43 32 12.2 21.7 0.10 0.10 0.10 78 999.7
20260503194554 43 25 12.2 17.4 0.06 0.06 0.06 76 1000.1
20260503193051 44 49 9.6 24.3 0.04 0.04 0.04 73 1001.3
20260503191543 46 44 10.4 16.5 0.00 0.00 0.00 65 1002.4
20260503190045 48 73 8.7 17.4 0.00 0.00 0.00 57 1003.5
20260503184539 49 92 9.6 25.2 0.00 0.00 0.00 49 1003.6
20260503183037 50 104 16.5 23.5 0.00 0.00 0.00 45 1004.3
20260503181535 52 126 13.0 21.7 0.00 0.00 0.00 37 1004.8
20260503180034 52 130 13.9 25.2 0.00 0.00 0.00 34 1005.2
20260503174534 52 138 15.6 27.8 0.00 0.00 0.00 32 1005.1
20260503173045 52 93 19.1 33.9 0.00 0.00 0.00 31 1005.7
20260503171535 52 104 15.6 26.9 0.00 0.00 0.00 35 1006.3